Location: ????????
(60.4333°N, 46.4710°E)
Time: 04:04:14
(UTC+00:00)

Cosmos 1934 Rocket - Pass Details

Date: 25 November 2020
Orbit: 937 x 1000 km, 83.0° (Epoch: 19 January)

Event Time Altitude Azimuth Distance (km) Brightness Sun altitude
Rises 16:35:28 0° 346° (NNW) 3,737 7.4 -32.1°
Reaches altitude 10° 16:38:01 10° 344° (NNW) 2,786 6.7 -32.4°
Maximum altitude 16:44:21 66° 264° (W) 1,090 4.3 -33.1°
Enters shadow 16:44:26 66° 259° (W) 1,091 4.3 -33.1°
